Погода в Сосново-Озёрском

Россия / Республика Бурятия     52°31′43″N   111°32′15″E
темп.,
°C
ветер,
м/с
пор.,
м/с
влажн.,
%
обл.,
%
осадки,
мм/ч
давл.,
гПа
погр.,
м
19 сентября, вс
вс1923:00+5вюв23920 0.0 101738
02:00+4в22925 0.0 101816
05:00+3в22935 0.0 101915
08:00+6в238478 0.0 1018136
11:00+13юв335689 0.0 1015664
14:00+17ююв34405 0.0 10121230
17:00+17ююв35465 0.0 1011279
20:00+10юв34745 0.0 101247
20 сентября, пн
пн2023:00+8юв12785 0.0 101311
02:00+7вюв118316 0.0 101210
05:00+6вюв118745 0.0 101210
08:00+9вюв11799 0.0 1012102
11:00+15юв12600 0.0 1009558
14:00+18юв12440 0.0 10061455
17:00+18вюв34452 0.0 1005274
20:00+11юв497933 0.0 1007160
21 сентября, вт
вт2123:00+9вюв368711 0.0 1007115
02:00+8в34935 0.0 100764
05:00+7всв34944 0.0 100758
08:00+9в23855 0.0 1006161
11:00+14зюз346588 0.0 1005795
14:00+13зюз6673100 0.4 1005879
17:00+10зюз5787100 1.3 1006578
20:00+7з369579 1.3 1008310
22 сентября, ср
ср2223:00+6зюз1293100 0.0 100981
02:00+5з249395 0.0 1010118
05:00+3зюз359049 0.0 1011125
08:00+5з35853 0.0 1011243
11:00+9зюз45615 0.0 1010844
14:00+12зюз56496 0.0 10091241
17:00+11зюз45516 0.0 10101006
20:00+6сз336919 0.0 101335
23 сентября, чт
чт2323:00+3с2276100 0.0 101411
02:00+3ссз227215 0.0 101515
05:00+1зсз2281100 0.0 101611
08:00+4зюз2371100 0.0 1017189
11:00+7з565876 0.0 1016752
14:00+10зюз674568 0.0 10151774
17:00+8зюз775843 0.0 10171133
20:00+4зюз587289 0.1 1021536